EW7346 Weather Reports


time (UTC)temp
F
wind
direction
speed
knots
gust
knots
rain 1hr
in
rain 24hr
in
rain mn
in
humidity
%
barometer
mb
20260508004510 57 298 2.6 7.0 0.00 0.16 0.15 33 1018.7
20260508004504 55 326 1.7 7.0 0.00 0.15 0.15 35 1018.9
20260508003504 56 294 1.7 7.8 0.00 0.15 0.15 33 1018.7
20260508002503 57 244 1.7 9.6 0.00 0.16 0.15 34 1018.7
20260508000500 58 17 1.7 4.3 0.00 0.16 0.15 32 1018.8
20260507235459 57 254 1.7 5.2 0.00 0.16 0.15 35 1018.8
20260507234500 57 247 1.7 4.3 0.00 0.17 0.15 33 1018.8
20260507233458 57 5 1.7 7.0 0.00 0.17 0.15 34 1018.8
20260507232459 58 312 1.7 7.8 0.00 0.18 0.15 33 1018.7
20260507231505 58 319 1.7 8.7 0.00 0.19 0.15 34 1018.8
20260507231459 58 0 1.7 6.1 0.00 0.18 0.15 32 1018.9
20260507225459 59 311 2.6 7.8 0.00 0.20 0.15 35 1018.9
20260507224500 59 288 1.7 8.7 0.00 0.20 0.15 32 1018.8
20260507223500 59 298 2.6 7.8 0.00 0.21 0.15 30 1018.8
20260507222457 58 331 1.7 7.8 0.00 0.23 0.15 36 1019.1
20260507221455 58 286 3.5 11.3 0.00 0.24 0.15 32 1018.9
20260507220456 58 209 2.6 10.4 0.00 0.25 0.15 32 1019.1
20260507220449 58 336 1.7 6.1 0.00 0.26 0.15 31 1019.1
20260507215608 57 222 1.7 5.2 0.00 0.27 0.15 31 1019.3
20260507213449 57 335 1.7 9.6 0.00 0.28 0.15 34 1019.5
20260507212449 57 172 2.6 7.0 0.00 0.31 0.15 32 1019.7
20260507211449 56 225 2.6 7.0 0.00 0.38 0.15 34 1019.9
20260507210450 56 307 3.5 8.7 0.00 0.40 0.15 31 1019.9
20260507205448 56 215 2.6 8.7 0.00 0.40 0.15 36 1020.3
20260507204450 55 188 2.6 7.8 0.00 0.40 0.15 33 1020.4
20260507203448 54 278 2.6 6.1 0.00 0.40 0.15 35 1020.4
20260507202450 54 275 2.6 8.7 0.00 0.40 0.15 36 1020.5
20260507201448 53 254 2.6 8.7 0.00 0.40 0.15 37 1020.5
20260507200450 53 267 2.6 7.0 0.00 0.40 0.15 36 1020.7
20260507195451 52 294 1.7 4.3 0.00 0.40 0.15 40 1020.7
20260507195447 52 249 2.6 7.0 0.00 0.40 0.15 41 1020.7
20260507193452 51 158 2.6 8.7 0.00 0.40 0.15 44 1020.5
20260507193446 51 229 2.6 6.1 0.00 0.40 0.15 44 1020.5
20260507191453 51 242 1.7 6.1 0.00 0.40 0.15 44 1020.9
20260507191448 52 229 1.7 6.1 0.00 0.40 0.15 45 1020.5
20260507185447 51 233 1.7 6.1 0.00 0.40 0.15 41 1021.0
20260507184447 51 315 1.7 9.6 0.00 0.40 0.15 44 1021.0
20260507183445 50 271 1.7 5.2 0.00 0.40 0.15 53 1021.0
20260507182440 49 248 0.9 3.5 0.00 0.40 0.15 49 1021.2
20260507181439 48 225 0.9 4.3 0.00 0.40 0.15 50 1021.4
20260507180437 49 281 0.0 0.0 0.00 0.40 0.15 54 1021.6
20260507175434 48 286 0.0 0.0 0.01 0.40 0.15 51 1021.6
20260507174436 48 247 0.9 4.3 0.01 0.40 0.15 46 1021.7
20260507173436 47 225 0.0 0.9 0.01 0.40 0.15 51 1021.7
20260507172432 47 225 1.7 4.3 0.02 0.40 0.15 54 1021.8
20260507171434 47 239 0.9 2.6 0.03 0.40 0.15 49 1021.8
20260507170438 48 281 0.0 1.7 0.06 0.39 0.14 40 1021.8
20260507170431 48 227 0.9 3.5 0.04 0.40 0.15 50 1021.7
20260507165431 48 219 1.7 4.3 0.04 0.39 0.14 50 1021.7
20260507164431 47 296 0.0 1.7 0.05 0.39 0.14 46 1021.7
20260507162430 47 341 0.0 0.0 0.06 0.38 0.13 37 1021.6
20260507161431 47 341 0.0 0.0 0.06 0.37 0.12 37 1022.0
20260507161426 47 234 0.0 0.0 0.06 0.36 0.11 35 1021.6
20260507155424 47 234 0.0 0.9 0.06 0.35 0.10 38 1021.6
20260507154422 46 234 0.0 0.0 0.06 0.34 0.09 38 1021.8
20260507153426 44 234 0.0 0.0 0.06 0.32 0.07 48 1022.1
20260507153422 45 234 0.0 0.0 0.06 0.33 0.08 48 1021.8
20260507151419 43 234 0.9 2.6 0.05 0.31 0.06 49 1022.1
20260507150420 42 234 0.0 0.0 0.04 0.30 0.05 44 1022.1
20260507150415 41 234 0.0 0.0 0.04 0.29 0.04 48 1022.1
20260507145531 40 234 0.0 0.0 0.03 0.28 0.03 57 1022.0
20260507143413 39 234 0.0 0.0 0.02 0.27 0.02 55 1022.0
20260507142414 37 233 0.0 1.7 0.01 0.26 0.01 62 1021.8
20260507141420 35 232 0.0 1.7 0.01 0.26 0.01 69 1021.7
20260507141416 37 233 0.0 1.7 0.01 0.26 0.01 65 1021.8
20260507135412 33 98 0.0 0.0 0.00 0.25 0.00 68 1021.6
20260507134412 32 98 0.0 0.9 0.00 0.25 0.00 70 1021.7
20260507133416 31 98 0.9 3.5 0.00 0.25 0.00 70 1021.6
20260507133411 29 98 2.6 3.5 0.00 0.25 0.00 65 1021.4
20260507131409 28 69 0.9 3.5 0.00 0.25 0.00 69 1021.4
20260507130411 28 46 0.0 0.0 0.00 0.25 0.00 65 1021.6
20260507125410 29 46 0.0 0.9 0.00 0.25 0.00 63 1021.6
20260507124410 29 46 0.0 0.0 0.00 0.25 0.00 62 1021.6
20260507123406 28 46 0.0 0.0 0.00 0.25 0.00 60 1021.3
20260507122411 27 46 0.0 1.7 0.00 0.25 0.00 65 1021.0
20260507122406 28 46 0.0 1.7 0.00 0.25 0.00 61 1021.3
20260507121509 28 46 0.0 1.7 0.00 0.25 0.00 62 1021.0
20260507115408 27 51 0.0 1.7 0.00 0.25 0.00 68 1021.0
20260507115403 27 46 0.9 2.6 0.00 0.25 0.00 66 1020.9
20260507114402 27 46 0.9 1.7 0.00 0.25 0.00 68 1020.9
20260507112401 27 54 0.0 1.7 0.00 0.25 0.00 68 1021.3
20260507111359 27 57 0.9 2.6 0.00 0.25 0.00 67 1020.9
20260507110401 26 94 0.0 2.6 0.00 0.25 0.00 67 1021.2
20260507105400 26 53 0.0 0.0 0.00 0.25 0.00 70 1021.2
20260507104359 26 53 0.0 0.0 0.00 0.25 0.00 72 1021.2
20260507103404 26 53 0.0 1.7 0.00 0.25 0.00 76 1021.3
20260507103400 26 53 0.0 0.0 0.00 0.25 0.00 73 1021.2
20260507101401 26 15 0.0 1.7 0.00 0.25 0.00 77 1021.4
20260507100356 26 15 0.0 3.5 0.00 0.25 0.00 79 1021.4
20260507095355 26 5 1.7 4.3 0.00 0.25 0.00 80 1021.7
20260507094349 26 5 0.9 3.5 0.00 0.25 0.00 80 1021.6
20260507093348 26 16 0.0 1.7 0.00 0.25 0.00 80 1021.8
20260507092348 26 5 0.0 1.7 0.00 0.25 0.00 80 1021.4
20260507091353 26 76 0.9 1.7 0.00 0.25 0.00 80 1021.4
20260507091348 26 76 0.9 2.6 0.00 0.25 0.00 79 1021.4
20260507090505 26 27 0.0 1.7 0.00 0.25 0.00 81 1021.6
20260507085348 26 43 0.0 2.6 0.00 0.25 0.00 81 1021.4
20260507084504 26 59 0.0 0.9 0.00 0.25 0.00 82 1021.3
20260507083348 26 57 0.9 2.6 0.00 0.25 0.00 81 1021.4
20260507081348 26 59 0.0 1.7 0.00 0.25 0.00 81 1021.3
20260507080349 26 59 0.0 1.7 0.00 0.25 0.00 80 1021.4
20260507075349 26 59 0.9 3.5 0.00 0.25 0.00 80 1021.4
20260507074348 26 53 0.0 2.6 0.00 0.25 0.00 82 1021.7
20260507073347 26 49 0.0 0.9 0.00 0.25 0.00 82 1021.8
20260507072349 26 49 0.0 0.0 0.00 0.25 0.00 81 1022.0
20260507071346 26 49 0.0 0.0 0.00 0.25 0.00 82 1021.8
20260507070342 26 49 0.0 0.0 0.00 0.25 0.00 82 1021.6
20260507065340 26 49 0.0 0.0 0.00 0.25 0.00 81 1021.6
20260507064339 27 49 0.9 2.6 0.00 0.25 0.00 80 1021.8
20260507063339 27 10 0.9 1.7 0.00 0.25 0.00 81 1021.4
20260507062339 26 355 0.9 1.7 0.00 0.25 0.00 81 1021.6
20260507061340 26 345 0.0 0.0 0.00 0.25 0.00 82 1021.4
20260507060338 26 345 0.0 0.0 0.00 0.25 0.00 82 1021.3
20260507055336 26 345 0.0 0.0 0.00 0.25 0.25 82 1021.0
20260507054334 27 345 0.0 0.0 0.00 0.25 0.25 82 1020.8
20260507053333 27 345 0.0 0.9 0.00 0.25 0.25 83 1020.8
20260507052338 27 62 0.0 0.0 0.00 0.25 0.25 85 1020.3
20260507052333 27 346 0.0 1.7 0.00 0.25 0.25 84 1020.7
20260507051331 27 347 0.0 2.6 0.00 0.25 0.25 85 1020.4
20260507045332 27 62 0.0 0.9 0.00 0.25 0.25 85 1020.4
20260507044329 26 62 0.0 0.9 0.00 0.25 0.25 86 1020.4
20260507043330 26 62 0.0 0.9 0.00 0.25 0.25 87 1020.3
20260507042334 26 86 0.0 0.9 0.00 0.25 0.25 87 1020.0
20260507042330 26 62 0.0 1.7 0.00 0.25 0.25 87 1020.1
20260507040325 26 86 0.0 0.0 0.00 0.25 0.25 87 1020.1
20260507035326 26 86 0.0 0.0 0.00 0.25 0.25 88 1019.9
20260507034324 25 86 0.0 0.9 0.00 0.25 0.25 88 1019.9
20260507033324 25 86 0.0 0.0 0.00 0.25 0.25 88 1020.1
20260507032326 25 86 0.0 0.9 0.00 0.25 0.25 88 1020.1
20260507032322 25 86 0.0 0.0 0.00 0.25 0.25 88 1019.9
20260507030319 25 86 0.9 1.7 0.00 0.25 0.25 88 1019.7
20260507025320 25 86 1.7 4.3 0.00 0.25 0.25 88 1019.9
20260507024320 25 77 1.7 3.5 0.00 0.26 0.25 87 1019.9
20260507023318 25 83 0.9 3.5 0.00 0.26 0.25 86 1019.7
20260507022317 26 94 0.9 2.6 0.00 0.26 0.25 85 1019.7
20260507021311 27 140 0.0 0.0 0.00 0.26 0.25 84 1019.5
20260507020314 28 140 0.0 0.0 0.00 0.26 0.25 83 1019.3
20260507020309 27 140 0.0 0.0 0.00 0.26 0.25 83 1019.3
20260507014306 28 140 0.0 1.7 0.00 0.26 0.25 83 1019.2
20260507013306 29 140 0.9 3.5 0.00 0.26 0.25 82 1019.1
20260507012306 29 172 0.0 2.6 0.01 0.26 0.25 81 1019.2
20260507011304 30 148 0.9 5.2 0.01 0.26 0.25 81 1019.2
20260507010309 31 149 0.0 2.6 0.01 0.27 0.25 82 1019.1
20260507010304 30 188 0.9 4.3 0.01 0.26 0.25 81 1019.1
20260507005305 31 223 0.9 4.3 0.02 0.27 0.25 82 1018.9